| time (UTC) | temp C | wind direction | speed KPH | gust KPH | rain 1hr cm | rain 24hr cm | rain mn cm | humidity % | barometer mb |
| 20260505035433 | 16 | 110 | 3.2 | 17.7 | 0.00 | 0.00 | 0.00 | 52 | 1007.0 |
| 20260505034930 | 16 | 129 | 8.0 | 12.9 | 0.00 | 0.00 | 0.00 | 52 | 1006.9 |
| 20260505034426 | 16 | 125 | 3.2 | 6.4 | 0.00 | 0.00 | 0.00 | 52 | 1007.0 |
| 20260505033924 | 16 | 212 | 4.8 | 14.5 | 0.00 | 0.00 | 0.00 | 51 | 1006.9 |
| 20260505033420 | 16 | 356 | 6.4 | 11.3 | 0.00 | 0.00 | 0.00 | 52 | 1006.7 |
| 20260505032919 | 16 | 164 | 6.4 | 8.0 | 0.00 | 0.00 | 0.00 | 52 | 1006.9 |
| 20260505032415 | 16 | 246 | 9.7 | 14.5 | 0.00 | 0.00 | 0.00 | 51 | 1006.9 |
| 20260505031912 | 16 | 218 | 3.2 | 11.3 | 0.00 | 0.00 | 0.00 | 52 | 1006.7 |
| 20260505031409 | 16 | 210 | 1.6 | 9.7 | 0.00 | 0.00 | 0.00 | 52 | 1006.6 |
| 20260505030906 | 16 | 175 | 1.6 | 8.0 | 0.00 | 0.00 | 0.00 | 51 | 1006.6 |
| 20260505030402 | 16 | 133 | 1.6 | 19.3 | 0.00 | 0.00 | 0.00 | 51 | 1006.7 |
| 20260505025857 | 16 | 206 | 8.0 | 17.7 | 0.00 | 0.00 | 0.00 | 50 | 1006.7 |
| 20260505025355 | 16 | 206 | 4.8 | 19.3 | 0.00 | 0.00 | 0.00 | 50 | 1007.0 |
| 20260505024854 | 16 | 148 | 4.8 | 8.0 | 0.00 | 0.00 | 0.00 | 50 | 1006.9 |
| 20260505024351 | 16 | 225 | 9.7 | 14.5 | 0.00 | 0.00 | 0.00 | 49 | 1007.0 |
| 20260505023847 | 16 | 180 | 4.8 | 17.7 | 0.00 | 0.00 | 0.00 | 48 | 1006.9 |
| 20260505023339 | 16 | 178 | 4.8 | 11.3 | 0.00 | 0.00 | 0.00 | 49 | 1007.0 |
| 20260505022836 | 16 | 257 | 4.8 | 8.0 | 0.00 | 0.00 | 0.00 | 48 | 1007.1 |
| 20260505022333 | 16 | 169 | 4.8 | 9.7 | 0.00 | 0.00 | 0.00 | 47 | 1007.3 |
| 20260505021831 | 16 | 327 | 1.6 | 20.9 | 0.00 | 0.00 | 0.00 | 47 | 1007.2 |
| 20260505021327 | 17 | 149 | 0.0 | 14.5 | 0.00 | 0.00 | 0.00 | 48 | 1007.1 |
| 20260505020823 | 16 | 161 | 3.2 | 11.3 | 0.00 | 0.00 | 0.00 | 47 | 1007.0 |
| 20260505020318 | 16 | 58 | 1.6 | 12.9 | 0.00 | 0.00 | 0.00 | 48 | 1007.1 |
| 20260505015815 | 17 | 80 | 3.2 | 11.3 | 0.00 | 0.00 | 0.00 | 47 | 1007.2 |
| 20260505015313 | 17 | 257 | 0.0 | 9.7 | 0.00 | 0.00 | 0.00 | 47 | 1007.0 |
| 20260505014810 | 16 | 40 | 3.2 | 9.7 | 0.00 | 0.00 | 0.00 | 48 | 1007.1 |
| 20260505014307 | 16 | 153 | 1.6 | 8.0 | 0.00 | 0.00 | 0.00 | 48 | 1007.0 |
| 20260505013803 | 17 | 177 | 4.8 | 12.9 | 0.00 | 0.00 | 0.00 | 47 | 1007.0 |
| 20260505013301 | 16 | 181 | 1.6 | 6.4 | 0.00 | 0.00 | 0.00 | 47 | 1006.9 |
| 20260505012759 | 17 | 132 | 1.6 | 8.0 | 0.00 | 0.00 | 0.00 | 47 | 1006.6 |
| 20260505012256 | 17 | 305 | 1.6 | 12.9 | 0.00 | 0.00 | 0.00 | 46 | 1006.7 |
| 20260505011752 | 17 | 199 | 1.6 | 11.3 | 0.00 | 0.00 | 0.00 | 46 | 1006.7 |
| 20260505011249 | 17 | 124 | 4.8 | 8.0 | 0.00 | 0.00 | 0.00 | 45 | 1006.9 |
| 20260505010744 | 17 | 138 | 4.8 | 11.3 | 0.00 | 0.00 | 0.00 | 45 | 1006.6 |
| 20260505010241 | 17 | 76 | 3.2 | 9.7 | 0.00 | 0.00 | 0.00 | 45 | 1006.6 |
| 20260505005737 | 17 | 182 | 3.2 | 14.5 | 0.00 | 0.00 | 0.00 | 45 | 1006.5 |
| 20260505005234 | 17 | 134 | 1.6 | 8.0 | 0.00 | 0.00 | 0.00 | 46 | 1006.5 |
| 20260505004732 | 17 | 146 | 12.9 | 17.7 | 0.00 | 0.00 | 0.00 | 44 | 1006.3 |
| 20260505004228 | 17 | 139 | 1.6 | 12.9 | 0.00 | 0.00 | 0.00 | 45 | 1006.3 |
| 20260505003725 | 17 | 142 | 4.8 | 19.3 | 0.00 | 0.00 | 0.00 | 45 | 1006.4 |
| 20260505003223 | 18 | 138 | 6.4 | 19.3 | 0.00 | 0.00 | 0.00 | 44 | 1006.5 |
| 20260505002719 | 17 | 179 | 1.6 | 9.7 | 0.00 | 0.00 | 0.00 | 46 | 1006.4 |
| 20260505002217 | 17 | 134 | 1.6 | 3.2 | 0.00 | 0.00 | 0.00 | 45 | 1006.2 |
| 20260505001714 | 17 | 187 | 4.8 | 14.5 | 0.00 | 0.00 | 0.00 | 44 | 1006.3 |
| 20260505001212 | 18 | 225 | 3.2 | 8.0 | 0.00 | 0.00 | 0.00 | 43 | 1006.1 |
| 20260505000708 | 17 | 123 | 1.6 | 8.0 | 0.00 | 0.00 | 0.00 | 44 | 1006.3 |
| 20260505000206 | 18 | 156 | 3.2 | 6.4 | 0.00 | 0.00 | 0.00 | 43 | 1006.2 |
| 20260504235702 | 18 | 138 | 1.6 | 12.9 | 0.00 | 0.00 | 0.00 | 43 | 1006.1 |
| 20260504235158 | 18 | 140 | 4.8 | 9.7 | 0.00 | 0.00 | 0.00 | 42 | 1006.1 |
| 20260504234656 | 18 | 174 | 4.8 | 11.3 | 0.00 | 0.00 | 0.00 | 42 | 1006.1 |
| 20260504234153 | 18 | 138 | 4.8 | 11.3 | 0.00 | 0.00 | 0.00 | 40 | 1006.1 |
| 20260504233649 | 19 | 84 | 3.2 | 8.0 | 0.00 | 0.00 | 0.00 | 40 | 1006.0 |
| 20260504233145 | 19 | 194 | 4.8 | 14.5 | 0.00 | 0.00 | 0.00 | 39 | 1005.8 |
| 20260504232643 | 19 | 134 | 4.8 | 12.9 | 0.00 | 0.00 | 0.00 | 40 | 1005.9 |
| 20260504232140 | 20 | 138 | 4.8 | 17.7 | 0.00 | 0.00 | 0.00 | 38 | 1005.7 |
| 20260504231636 | 20 | 101 | 4.8 | 8.0 | 0.00 | 0.00 | 0.00 | 38 | 1005.9 |
| 20260504231133 | 20 | 142 | 3.2 | 14.5 | 0.00 | 0.00 | 0.00 | 38 | 1005.8 |
| 20260504230629 | 20 | 212 | 4.8 | 17.7 | 0.00 | 0.00 | 0.00 | 38 | 1005.7 |
| 20260504230128 | 20 | 141 | 8.0 | 11.3 | 0.00 | 0.00 | 0.00 | 36 | 1005.6 |
| 20260504225626 | 20 | 131 | 3.2 | 9.7 | 0.00 | 0.00 | 0.00 | 36 | 1005.7 |
| 20260504225121 | 20 | 315 | 3.2 | 11.3 | 0.00 | 0.00 | 0.00 | 35 | 1005.9 |
| 20260504224618 | 20 | 182 | 4.8 | 14.5 | 0.00 | 0.00 | 0.00 | 36 | 1005.6 |
| 20260504224115 | 20 | 234 | 4.8 | 16.1 | 0.00 | 0.00 | 0.00 | 36 | 1005.8 |
| 20260504223612 | 21 | 257 | 3.2 | 17.7 | 0.00 | 0.00 | 0.00 | 37 | 1005.8 |
| 20260504223108 | 21 | 152 | 1.6 | 11.3 | 0.00 | 0.00 | 0.00 | 38 | 1005.7 |
| 20260504222605 | 21 | 165 | 4.8 | 6.4 | 0.00 | 0.00 | 0.00 | 34 | 1005.9 |
| 20260504222102 | 22 | 180 | 6.4 | 9.7 | 0.00 | 0.00 | 0.00 | 32 | 1005.8 |
| 20260504221559 | 21 | 202 | 4.8 | 11.3 | 0.00 | 0.00 | 0.00 | 31 | 1005.5 |
| 20260504221056 | 22 | 221 | 4.8 | 19.3 | 0.00 | 0.00 | 0.00 | 29 | 1005.8 |
| 20260504220553 | 21 | 249 | 4.8 | 20.9 | 0.00 | 0.00 | 0.00 | 29 | 1005.7 |
| 20260504220050 | 21 | 234 | 11.3 | 16.1 | 0.00 | 0.00 | 0.00 | 30 | 1005.6 |
| 20260504215546 | 22 | 132 | 11.3 | 20.9 | 0.00 | 0.00 | 0.00 | 31 | 1005.5 |
| 20260504215044 | 22 | 219 | 9.7 | 17.7 | 0.00 | 0.00 | 0.00 | 29 | 1005.7 |
| 20260504214539 | 22 | 206 | 17.7 | 17.7 | 0.00 | 0.00 | 0.00 | 30 | 1005.8 |
| 20260504214036 | 22 | 189 | 12.9 | 19.3 | 0.00 | 0.00 | 0.00 | 31 | 1005.9 |
| 20260504213532 | 21 | 233 | 11.3 | 24.1 | 0.00 | 0.00 | 0.00 | 31 | 1005.8 |
| 20260504213030 | 21 | 211 | 14.5 | 14.5 | 0.00 | 0.00 | 0.00 | 32 | 1005.7 |
| 20260504212525 | 21 | 249 | 9.7 | 16.1 | 0.00 | 0.00 | 0.00 | 31 | 1005.6 |
| 20260504212023 | 21 | 157 | 3.2 | 20.9 | 0.00 | 0.00 | 0.00 | 33 | 1005.9 |
| 20260504211520 | 21 | 125 | 6.4 | 19.3 | 0.00 | 0.00 | 0.00 | 34 | 1005.9 |
| 20260504211017 | 21 | 237 | 9.7 | 22.5 | 0.00 | 0.00 | 0.00 | 31 | 1006.3 |
| 20260504210514 | 21 | 251 | 12.9 | 14.5 | 0.00 | 0.00 | 0.00 | 32 | 1006.0 |
| 20260504210011 | 21 | 196 | 8.0 | 25.7 | 0.00 | 0.00 | 0.00 | 32 | 1005.9 |
| 20260504205509 | 21 | 163 | 9.7 | 19.3 | 0.00 | 0.00 | 0.00 | 32 | 1006.1 |
| 20260504205006 | 22 | 273 | 6.4 | 12.9 | 0.00 | 0.00 | 0.00 | 32 | 1006.0 |
| 20260504204504 | 20 | 216 | 9.7 | 19.3 | 0.00 | 0.00 | 0.00 | 33 | 1006.2 |
| 20260504204003 | 21 | 94 | 4.8 | 14.5 | 0.00 | 0.00 | 0.00 | 32 | 1006.1 |
| 20260504203501 | 21 | 161 | 8.0 | 20.9 | 0.00 | 0.00 | 0.00 | 33 | 1006.4 |
| 20260504202956 | 21 | 247 | 4.8 | 16.1 | 0.00 | 0.00 | 0.00 | 33 | 1006.2 |
| 20260504202453 | 20 | 247 | 9.7 | 24.1 | 0.00 | 0.00 | 0.00 | 35 | 1006.6 |
| 20260504201950 | 20 | 259 | 4.8 | 19.3 | 0.00 | 0.00 | 0.00 | 37 | 1006.6 |
| 20260504201447 | 20 | 160 | 11.3 | 30.6 | 0.00 | 0.00 | 0.00 | 35 | 1006.5 |
| 20260504200945 | 21 | 191 | 3.2 | 19.3 | 0.00 | 0.00 | 0.00 | 35 | 1006.5 |
| 20260504200441 | 21 | 250 | 4.8 | 17.7 | 0.00 | 0.00 | 0.00 | 36 | 1006.5 |
| 20260504195938 | 20 | 229 | 8.0 | 16.1 | 0.00 | 0.00 | 0.00 | 36 | 1006.9 |
| 20260504195434 | 20 | 234 | 8.0 | 25.7 | 0.00 | 0.00 | 0.00 | 35 | 1006.9 |
| 20260504194931 | 21 | 162 | 8.0 | 17.7 | 0.00 | 0.00 | 0.00 | 34 | 1006.9 |
| 20260504194427 | 20 | 219 | 16.1 | 30.6 | 0.00 | 0.00 | 0.00 | 34 | 1007.0 |
| 20260504193923 | 21 | 227 | 6.4 | 11.3 | 0.00 | 0.00 | 0.00 | 37 | 1007.1 |
| 20260504193420 | 21 | 191 | 14.5 | 16.1 | 0.00 | 0.00 | 0.00 | 33 | 1007.1 |
| 20260504192919 | 21 | 171 | 6.4 | 17.7 | 0.00 | 0.00 | 0.00 | 36 | 1007.2 |
| 20260504192415 | 21 | 226 | 11.3 | 20.9 | 0.00 | 0.00 | 0.00 | 39 | 1007.3 |
| 20260504191915 | 20 | 184 | 6.4 | 19.3 | 0.00 | 0.00 | 0.00 | 35 | 1007.3 |
| 20260504191412 | 20 | 213 | 6.4 | 14.5 | 0.00 | 0.00 | 0.00 | 37 | 1007.2 |
| 20260504190907 | 20 | 207 | 4.8 | 16.1 | 0.00 | 0.00 | 0.00 | 36 | 1007.3 |
| 20260504190403 | 21 | 205 | 4.8 | 22.5 | 0.00 | 0.00 | 0.00 | 39 | 1007.2 |
| 20260504185900 | 20 | 251 | 8.0 | 17.7 | 0.00 | 0.00 | 0.00 | 37 | 1007.3 |
| 20260504185357 | 20 | 189 | 4.8 | 22.5 | 0.00 | 0.00 | 0.00 | 36 | 1007.4 |
| 20260504184853 | 20 | 236 | 17.7 | 33.8 | 0.00 | 0.00 | 0.00 | 37 | 1007.5 |
| 20260504184349 | 20 | 99 | 4.8 | 16.1 | 0.00 | 0.00 | 0.00 | 36 | 1007.3 |
| 20260504183845 | 20 | 254 | 29.0 | 33.8 | 0.00 | 0.00 | 0.00 | 36 | 1007.5 |
| 20260504183343 | 20 | 240 | 17.7 | 30.6 | 0.00 | 0.00 | 0.00 | 36 | 1007.6 |
| 20260504182840 | 20 | 188 | 6.4 | 29.0 | 0.00 | 0.00 | 0.00 | 38 | 1007.8 |
| 20260504182337 | 20 | 258 | 22.5 | 22.5 | 0.00 | 0.00 | 0.00 | 36 | 1007.5 |
| 20260504181834 | 20 | 231 | 19.3 | 35.4 | 0.00 | 0.00 | 0.00 | 37 | 1007.6 |
| 20260504181331 | 20 | 210 | 8.0 | 20.9 | 0.00 | 0.00 | 0.00 | 38 | 1007.5 |
| 20260504180830 | 20 | 173 | 17.7 | 30.6 | 0.00 | 0.00 | 0.00 | 38 | 1007.7 |
| 20260504180328 | 19 | 248 | 19.3 | 24.1 | 0.00 | 0.00 | 0.00 | 38 | 1007.8 |
| 20260504175826 | 18 | 255 | 6.4 | 32.2 | 0.00 | 0.00 | 0.00 | 40 | 1007.9 |
| 20260504175323 | 20 | 246 | 3.2 | 20.9 | 0.00 | 0.00 | 0.00 | 39 | 1007.8 |
| 20260504174821 | 20 | 223 | 11.3 | 24.1 | 0.00 | 0.00 | 0.00 | 37 | 1007.9 |
| 20260504174318 | 20 | 163 | 9.7 | 30.6 | 0.00 | 0.00 | 0.00 | 37 | 1008.1 |
| 20260504173815 | 20 | 267 | 9.7 | 19.3 | 0.00 | 0.00 | 0.00 | 37 | 1007.9 |
| 20260504173311 | 19 | 137 | 8.0 | 19.3 | 0.00 | 0.00 | 0.00 | 41 | 1007.7 |
| 20260504172809 | 18 | 138 | 9.7 | 22.5 | 0.00 | 0.00 | 0.00 | 40 | 1007.9 |
| 20260504172305 | 18 | 227 | 6.4 | 37.0 | 0.00 | 0.00 | 0.00 | 41 | 1007.9 |
| 20260504171801 | 19 | 207 | 12.9 | 29.0 | 0.00 | 0.00 | 0.00 | 39 | 1008.0 |
| 20260504171258 | 18 | 223 | 6.4 | 27.4 | 0.00 | 0.00 | 0.00 | 40 | 1008.0 |
| 20260504170755 | 18 | 248 | 8.0 | 19.3 | 0.00 | 0.00 | 0.00 | 40 | 1007.9 |
| 20260504170252 | 18 | 236 | 11.3 | 24.1 | 0.00 | 0.00 | 0.00 | 39 | 1008.2 |
| 20260504160211 | 17 | 241 | 19.3 | 19.3 | 0.00 | 0.00 | 0.00 | 41 | 1008.9 |
| 20260504151139 | 16 | 197 | 8.0 | 25.7 | 0.00 | 0.00 | 0.00 | 42 | 1009.3 |
| 20260504150636 | 16 | 232 | 16.1 | 16.1 | 0.00 | 0.00 | 0.00 | 42 | 1009.2 |
| 20260504150133 | 15 | 208 | 4.8 | 27.4 | 0.00 | 0.00 | 0.00 | 43 | 1009.3 |
| 20260504141102 | 13 | 184 | 4.8 | 24.1 | 0.00 | 0.00 | 0.00 | 47 | 1009.8 |
| 20260504140558 | 13 | 95 | 6.4 | 19.3 | 0.00 | 0.00 | 0.00 | 46 | 1010.0 |
| 20260504130522 | 10 | 155 | 8.0 | 14.5 | 0.00 | 0.00 | 0.00 | 52 | 1010.4 |
| 20260504110410 | 6 | 114 | 1.6 | 8.0 | 0.00 | 0.00 | 0.00 | 65 | 1010.6 |
| 20260504100326 | 5 | 144 | 3.2 | 8.0 | 0.00 | 0.00 | 0.00 | 66 | 1010.5 |
| 20260504081720 | 5 | 115 | 1.6 | 3.2 | 0.00 | 0.00 | 0.00 | 68 | 1010.7 |
| 20260504081216 | 5 | 130 | 3.2 | 4.8 | 0.00 | 0.00 | 0.00 | 67 | 1010.6 |
| 20260504080712 | 5 | 119 | 3.2 | 3.2 | 0.00 | 0.00 | 0.00 | 67 | 1010.7 |
| 20260504080209 | 5 | 135 | 3.2 | 8.0 | 0.00 | 0.00 | 0.00 | 68 | 1010.7 |
| 20260504070137 | 6 | 143 | 6.4 | 9.7 | 0.00 | 0.00 | 0.00 | 62 | 1010.8 |
| 20260504050525 | 4 | 103 | 0.0 | 3.2 | 0.00 | 0.00 | 0.00 | 80 | 1011.1 |
| 20260504050022 | 4 | 83 | 1.6 | 3.2 | 0.00 | 0.00 | 0.00 | 78 | 1011.0 |
| 20260504045519 | 4 | 100 | 1.6 | 3.2 | 0.00 | 0.00 | 0.00 | 79 | 1011.0 |
| 20260504045014 | 4 | 100 | 1.6 | 3.2 | 0.00 | 0.00 | 0.00 | 80 | 1011.0 |
| 20260504044512 | 4 | 76 | 0.0 | 3.2 | 0.00 | 0.00 | 0.00 | 80 | 1010.8 |
| 20260504044009 | 5 | 77 | 1.6 | 1.6 | 0.00 | 0.00 | 0.00 | 77 | 1010.9 |
| 20260504043506 | 5 | 95 | 0.0 | 3.2 | 0.00 | 0.00 | 0.00 | 76 | 1010.9 |
| 20260504043003 | 5 | 117 | 0.0 | 3.2 | 0.00 | 0.00 | 0.00 | 74 | 1010.8 |
| 20260504042500 | 5 | 130 | 0.0 | 3.2 | 0.00 | 0.00 | 0.00 | 74 | 1010.9 |
| 20260504041957 | 5 | 124 | 1.6 | 3.2 | 0.00 | 0.00 | 0.00 | 74 | 1011.0 |
| 20260504041453 | 5 | 78 | 3.2 | 3.2 | 0.00 | 0.00 | 0.00 | 74 | 1011.1 |
| 20260504040948 | 6 | 95 | 1.6 | 3.2 | 0.00 | 0.00 | 0.00 | 72 | 1010.8 |
| 20260504040447 | 6 | 94 | 0.0 | 3.2 | 0.00 | 0.00 | 0.00 | 70 | 1010.8 |
| 20260504035942 | 6 | 89 | 1.6 | 3.2 | 0.00 | 0.00 | 0.00 | 68 | 1010.7 |